Regional Weather Roundup
Issued by NWS Albany, NY

Home | Current Version | Previous Version | Text Only | Print | Product List | Glossary On
Versions: 1 2 3 4 5 6 7 8 9 10 11 12 13 14 15 16 17 18 19 20 21 22 23 24 25 26 27 28 29 30 31 32 33 34 35 36 37 38 39 40 41 42 43 44 45 46 47 48 49 50
000
ASUS41 KALY 252210
RWRALY

NEW YORK STATE HOURLY WEATHER ROUNDUP
NATIONAL WEATHER SERVICE ALBANY NY
600 PM EDT MON MAY 25 2015

NOTE: "FAIR" INDICATES FEW OR NO CLOUDS BELOW 12,000 FEET WITH NO
SIGNIFICANT WEATHER AND/OR NO OBSTRUCTIONS TO VISIBILITY.

NYZ032-033-038>043-046>054-057>066-NYZ062>081-252300-
EAST


CITY           SKY/WX    TMP DP  RH WIND       PRES   REMARKS
ALBANY         PTSUNNY   86  56  35 S16G25    30.05F
GLENS FALLS    PTSUNNY   80  59  48 S3        30.05F
POUGHKEEPSIE   SUNNY     85  57  38 S9G20     30.10F
NEWBURGH       MOSUNNY   84  57  39 SW17G23   30.13F
WHITE PLAINS   MOSUNNY   77  57  50 S9G18     30.16F
ISLIP          PTSUNNY   69  57  65 S15       30.19S
NEW YORK CITY  PTSUNNY   82  56  40 S15       30.15S
CENTRAL PARK   PTSUNNY   82  57  42 MISG      30.17F
$$

NYZ005>009-017-018-044>046-055-056-252300-
CENTRAL


CITY           SKY/WX    TMP DP  RH WIND       PRES   REMARKS
FULTON         LGT RAIN  78  60  53 SW12      30.04R
SYRACUSE       LGT RAIN  82  56  40 SW22G36   30.03R
ROME           CLOUDY    80  61  52 CALM      30.03F
ELMIRA         CLOUDY    83  54  36 SW9       30.06S
BINGHAMTON     MOSUNNY   78  55  44 SW10      30.11F
MONTICELLO     SUNNY     81  54  39 S10G16    30.16S
$$

NYZ026>034-041>043-252300-
NORTH


CITY           SKY/WX    TMP DP  RH WIND       PRES   REMARKS
WATERTOWN      LGT RAIN  68  61  78 SW5       30.01R
FORT DRUM      NOT AVBL
MASSENA        LGT RAIN  62  59  90 NE8       30.05S FOG
SARANAC LAKE   CLOUDY    74  53  48 SW10      30.05F
PLATTSBURGH    CLOUDY    64  56  75 CALM      30.04F
$$

NYZ001>004-010>016-019>021-252300-
WEST


CITY           SKY/WX    TMP DP  RH WIND       PRES   REMARKS
NIAGARA FALLS  CLOUDY    80  60  50 SW16      29.98F
BUFFALO        CLOUDY    76  61  59 SW13      30.00F
DUNKIRK        CLOUDY    72  59  63 W6        30.00F
JAMESTOWN      CLOUDY    77  57  50 SW9G21    30.08F
WELLSVILLE     PTSUNNY   79  56  45 S13G18    30.13F
ROCHESTER      CLOUDY    82  61  48 S5        30.00F
PENN YAN       CLOUDY    84  57  39 SW9       30.05S
$$

             KEY
       WCI = WIND CHILL INDEX
       VSB = VISIBILITY
       HX  = HEAT INDEX
$$


USA.gov is the U.S. government's official web portal to all federal, state and local government web resources and services.